Regional Weather Roundup
Issued by NWS Cleveland, OH

Home | Current Version | Previous Version | Graphics & Text | Print | Product List | Glossary On
Versions: 1 2 3 4 5 6 7 8 9 10 11 12 13 14 15 16 17 18 19 20 21 22 23 24 25 26 27 28 29 30 31 32 33 34 35 36 37 38 39 40 41 42 43 44 45 46 47 48 49 50
000
ASUS41 KCLE 230710
RWRCLE
OHIO REGIONAL WEATHER ROUNDUP
NATIONAL WEATHER SERVICE WILMINGTON, OH
300 AM EDT TUE SEP 23 2014

NOTE: "FAIR" INDICATES FEW OR NO CLOUDS BELOW 12,000 FEET WITH NO
SIGNIFICANT WEATHER AND/OR OBSTRUCTIONS TO VISIBILITY.

OHZ001>008-015>018-024>027-034-035-043-044-230800-
   NORTHWEST OHIO

CITY           SKY/WX    TMP DP  RH WIND       PRES   REMARKS
DEFIANCE       CLEAR    N/A N/A N/A CALM      30.29F
FINDLAY        CLEAR     44  41  89 CALM      30.28S
TOLEDO EXPRESS CLEAR     43  42  97 CALM      30.29S
TOLEDO METCALF CLEAR     49  42  77 CALM      30.30R
LIMA           CLEAR     44  40  85 CALM      30.29S
$$

OHZ009>014-019>023-028>033-038-089-230800-
   NORTHEAST OHIO

CITY           SKY/WX    TMP DP  RH WIND       PRES   REMARKS
CLE-HOPKINS    CLEAR     44  40  85 S3        30.30F
CLE-LAKEFRONT  CLEAR     48  42  80 SE10      30.27F
CUY CO. ARPT   NOT AVBL
LORAIN-ELYRIA  CLEAR     46  41  82 S3        30.30R
ASHTABULA      CLEAR     41  39  93 CALM      30.29S
AKRON-CANTON   CLEAR     45  40  82 S3        30.29F
WOOSTER        FOG       39  36  89 CALM      30.30F VSB 1/2
MANSFIELD      CLEAR     44  42  93 S3        30.29S
YOUNGSTOWN     CLEAR     42  40  92 CALM      30.28F
$$

OHZ042-051>053-060>062-070>072-077>081-230800-
  SOUTHWEST OHIO

CITY           SKY/WX    TMP DP  RH WIND       PRES   REMARKS
CINC-COVINGTON CLEAR     48  42  80 CALM      30.29R
CINC-LUNKEN    CLEAR     44  43  96 CALM      30.31S
HAMILTON       CLEAR     41  40  96 CALM      30.30S
DAYTON         CLEAR     47  41  80 CALM      30.30S
WRIGHT-PAT AFB CLEAR     44  41  88 CALM      30.29F
DAYTON GENERAL CLEAR     46  43  89 CALM      30.28F
WILMINGTON     CLEAR     41  38  89 CALM      30.29S
$$

OHZ036-037-039>041-045>050-054>059-063>069-073>076-082>088-230800-
  CENTRAL AND SOUTHEAST OHIO

CITY           SKY/WX    TMP DP  RH WIND       PRES   REMARKS
COLUMBUS       CLEAR     47  41  80 CALM      30.29S
OSU AIRPORT    CLEAR     46  42  86 CALM      30.29S
BOLTON FIELD   CLEAR     42  41  95 CALM      30.29F
RICKENBACK AFB CLEAR     42  40  91 CALM      30.29S
NEWARK         PTCLDY    39  36  89 CALM      30.30S FOG
MARION         CLEAR     44  40  85 CALM      30.29F
LANCASTER      CLEAR     40  37  89 NE3       30.30S
ZANESVILLE     CLEAR     42  39  89 CALM      30.30S
NEW PHILLY     FOG       42  42 100 CALM      30.31S VSB 1/4
$$


USA.gov is the U.S. government's official web portal to all federal, state and local government web resources and services.